YAMAL 601

Last updated on July 6, 2021, 3:31 p.m. UTC

1 44307U 19031A   21186.51316630  .00000128  00000-0  00000-0 0  9996
2 44307   0.0125  65.3458 0002157  40.7028  51.4121  1.00273312  7803
UTC
Height (km)
Latitude
Longitude
Inclination
Orbital Period
UTC large
Height (km)
Speed (km/s)
/
Latitude / Longitude
Inclination (degrees)
Orbital Period (minutes)
Azimuth
Elevation
Range (km)
Doppler Factor
iOS Compass Heading
iOS Angle

Next 30 passes for location: Hong Kong

Rise time Rise Azimuth (degrees) Set time Set Azimuth (degrees) Duration Max altitude (degrees)

No matching passes for this satellites